BREEZE-M R/B, 39361

Orbit data source: Space-Track

BREEZE-M R/B, 39361 is space debris in HEO originally from a launch on Fri, 25 Oct 2013 UTC launched from the Tyuratam Missile And Space Complex (TTMTR). Debris objects in space refer to the collection of defunct objects orbiting the Earth. Examples of debris include non-operational satellites, rocket bodies, and fragments generated from explosions, collisions, or faulty payload assembly.

Loading next visibility...
Identifier
39361, 2013-058B
Orbit
HEO
Country
Flag of CISCIS
Related business
Manufacturer
Khrunichev
Mission
Spacecraft
Bus & Motor
BRIZ, Unknown motor
Mass
~1,600 kg wet, 1,600 kg dry
Launch date (UTC)
2013-10-25 (12 years ago)
Launch vehicle
Unknown
Launch site
Tyuratam Missile And Space Complex (TTMTR)
Object type
Payload
Rocket body
Debris
Shape & HBR
Cyl, 2.0 m
Radar Cross Section
15.135 m², Large (>1 m²)

Expand to show TLE details & history
Last TLE update: 2 days ago

TLE from 2 days ago
0 BREEZE-M R/B
1 39361U 13058B   25353.43469109  .00000023  00000-0  00000+0 0  9997
2 39361  22.4222 168.4289 6150322  76.2018 341.7592  2.17400234 96514
Epoch: 2025-12-19T10:25Z
TLE epoch observation values (Epoch: 2025-12-19T10:25:57.310Z)
Latitude
-0.00001°
Longitude
-76.39309°
Altitude
7,257.77 km
Speed
6.529 km/s
True Right ascension
11h 13m 29s
True Declination
0° 00' 00"
Sunlit
Object was in daylight at epoch
Visualization orbit readout
Latitude
Unknown
Longitude
Unknown
Altitude
Unknown
Speed
Unknown
Apparent Right ascension
Unknown
Apparent Declination
Unknown
Sunlit
N/A
Visualization observer readout
Local Sidereal Time
13:59:00
Azimuth
Unknown
Elevation
Unknown
Doppler factor
Unknown
Orbital elements
Apogee altitude
34,277.874 km
Perigee altitude
3,312.849 km
Semi-major axis
25,173.499 km
Eccentricity
0.61503
Inclination
22.4222°
RAAN
168.4289°
Arg. of periapsis
76.2018°
True anomaly
284.13147°
Mean anomaly
341.7592°
Eccentric anomaly
318.33202°
Mean motion
0.54341 °/min
Orbital period
662.48 mins
BSTAR
0
Loading maneuver chart data...
Computing Atmospheric mass density...
Loading historical data...
Loading historical data...
Loading historical data...
Loading historical data...
Loading historical data...
Loading historical data...
Loading historical data...
Other satellites on launch #58 in the year 2013 (2013-10-25 UTC)

Documentation

Showing up to 5 results
|